User: anonymous   Login
Location: Zagreb
(45.8000°N, 16.0000°E)
Time: 09:41:10
(UTC+02:00)
Language:

Vanguard 1 - Orbit

View from above orbital plane
View from above orbital plane
View from above satellite
View from above satellite

Ground track
Ground track

The orbit data is extracted from the following two-line orbital elements,

1     5U 58002B   24197.05840288  .00000975  00000-0  12132-2 0  9990
2     5  34.2546 321.2556 1842738 213.1509 133.9044 10.85474564367047
Epoch (UTC): 15 July 2024 01:24:06
Eccentricity: 0.1842738
inclination: 34.2546°
perigee height: 650 km
apogee height: 3826 km
right ascension of ascending node: 321.2556°
argument of perigee: 213.1509°
revolutions per day: 10.85474564
mean anomaly at epoch: 133.9044°
orbit number at epoch: 36704

The dashed part of the orbit path shows where the satellite is in the earth's shadow,  

DLR